Wind_Speed
43 42 43 45 47 45 40 39 43 51 55 56 58 56 48 44 44 44 46 47 46 45 43 42 41 43 46 49 52 53 53 54 55 55 52 47 42 35 29 26 25 28 32 37 44 53 63 71 75 76 77 78 78 76 74 73 72 69 68 66 64 62 59 57 55 54 54 52 50 49 46 45 43 40
45 44 44 46 47 45 44 46 51 55 57 59 60 54 47 45 44 45 47 47 46 45 45 44 42 44 48 51 53 54 54 55 57 57 57 54 50 46 41 35 29 28 30 34 40 47 57 67 75 79 80 81 81 81 79 77 76 74 73 71 68 66 63 61 58 57 56 55 54 52 50 47 45 43
46 45 45 46 48 48 50 53 56 57 60 63 59 52 48 46 44 46 48 48 47 45 45 46 45 47 51 53 55 55 56 57 58 60 60 59 57 56 52 44 38 36 35 35 38 43 51 61 71 80 84 84 84 85 84 82 80 78 77 76 73 71 68 64 62 59 59 58 57 55 53 50 48 46
47 45 44 46 49 52 54 56 59 62 65 64 58 52 49 46 46 48 48 47 49 48 47 47 48 51 54 57 57 57 58 59 61 62 63 63 63 62 59 53 47 47 45 43 40 41 47 56 66 77 84 88 88 88 88 87 85 83 81 79 78 75 72 69 66 63 61 61 60 58 56 54 51 48
46 46 46 48 52 55 58 61 64 67 66 62 56 53 50 47 47 48 46 47 51 53 51 49 50 54 57 59 59 59 61 63 64 65 67 68 68 67 65 62 58 56 54 51 46 43 44 51 61 71 81 89 92 92 91 91 90 88 85 83 81 79 77 74 71 67 64 63 63 62 59 57 54 51
49 52 54 56 58 60 64 67 69 69 65 59 56 53 49 48 48 47 46 48 52 54 54 52 52 55 59 60 61 62 63 65 67 69 71 73 73 71 70 68 65 62 61 57 53 47 44 49 57 65 75 85 93 96 95 94 93 92 90 87 84 82 81 78 75 71 68 65 65 65 62 59 57 55
60 62 62 63 64 67 69 71 71 68 63 58 55 51 47 47 48 49 49 53 55 56 56 55 54 57 60 61 62 65 66 68 70 72 75 76 76 75 75 73 69 67 66 62 58 52 47 48 54 62 70 78 89 97 100 97 95 94 93 91 89 86 84 81 78 75 71 68 67 67 65 61 59 58
69 68 67 68 70 72 73 74 72 67 62 57 53 49 47 47 49 51 54 57 59 59 59 58 56 58 62 64 66 68 70 72 74 76 78 79 78 78 78 75 72 71 69 65 60 55 50 49 52 59 67 73 82 93 101 101 98 95 94 94 93 90 87 84 81 78 75 71 68 69 68 65 61 60
70 70 71 73 74 75 75 74 71 66 61 57 52 49 49 50 51 54 56 58 60 61 61 61 61 62 65 67 70 73 74 76 79 80 80 80 80 80 78 75 73 73 70 66 62 57 53 51 52 56 64 71 76 84 95 102 101 98 95 95 94 93 90 86 84 81 78 74 71 69 70 68 64 62
70 72 74 75 75 75 74 72 69 64 58 54 51 49 51 54 55 57 57 59 62 63 61 61 62 65 67 70 73 76 78 81 82 83 82 82 82 80 76 75 75 75 73 69 63 59 56 54 53 54 60 67 71 77 86 97 102 101 99 97 95 94 92 89 86 84 80 77 73 71 71 70 67 64
69 70 72 73 72 72 71 69 67 63 59 54 50 51 54 56 57 58 59 61 62 61 59 60 61 63 67 70 74 78 81 83 84 84 83 82 81 79 77 78 79 79 76 71 65 61 58 56 54 53 56 62 67 71 78 89 98 102 102 99 97 96 94 91 88 85 82 79 76 73 72 71 69 66
68 69 70 71 71 71 70 67 65 63 61 57 53 53 55 57 58 59 60 60 60 59 60 59 60 62 67 71 76 79 81 84 84 84 82 80 78 79 80 82 85 84 78 71 67 64 61 57 53 51 54 58 63 67 73 82 92 100 103 102 99 98 96 93 89 87 84 81 78 75 73 72 71 68
70 71 72 73 73 73 71 68 64 62 60 58 57 57 58 59 60 61 61 61 61 61 60 61 62 66 70 74 78 80 82 84 84 83 81 79 78 80 82 85 88 86 78 70 67 65 63 58 52 50 52 56 60 62 67 77 87 95 101 103 102 100 98 95 91 89 86 83 79 77 75 73 72 70
71 72 72 72 73 72 71 69 66 63 60 59 59 59 60 61 62 63 64 64 64 64 64 65 69 71 74 77 79 81 83 84 82 81 80 79 80 83 85 88 89 84 76 69 66 66 64 57 50 49 51 53 56 59 64 73 84 90 97 102 103 101 99 97 93 91 88 85 81 79 76 74 73 72
70 69 68 69 69 70 69 68 65 62 60 58 57 58 60 62 63 64 65 65 66 67 68 70 73 75 77 79 81 82 83 82 80 79 79 80 84 87 87 88 86 81 74 69 66 66 64 55 48 48 51 52 53 57 61 71 81 87 92 99 103 103 101 98 96 93 90 87 84 81 78 76 74 74
68 67 66 66 66 67 68 66 63 61 59 57 56 58 61 63 64 65 66 66 67 69 71 72 74 76 78 80 82 81 80 79 78 79 82 85 87 89 87 83 79 76 74 70 66 66 64 53 44 46 50 51 52 55 60 69 79 84 88 94 101 103 101 100 97 95 92 89 86 83 80 77 75 75
68 68 66 65 65 66 66 65 64 62 61 60 60 61 63 65 67 68 69 70 70 71 73 75 77 78 79 79 78 77 77 79 82 85 88 89 89 87 83 79 76 74 74 70 65 64 61 49 41 45 50 50 52 55 60 68 76 80 84 90 97 101 101 100 99 97 94 91 88 85 82 80 77 76
71 70 67 67 68 67 66 66 66 65 65 66 66 67 69 71 73 73 75 75 75 75 76 77 78 78 77 75 75 77 81 84 87 89 90 89 86 82 78 76 75 75 74 70 64 60 56 47 41 45 49 50 52 54 59 66 72 76 80 85 92 97 100 100 99 98 96 93 90 88 85 82 80 77
74 69 68 71 73 72 70 69 69 69 70 71 73 74 75 76 77 77 78 79 78 77 77 77 77 77 77 79 80 83 86 87 89 89 88 86 82 78 75 75 75 74 74 71 62 54 51 47 42 45 49 49 51 53 57 64 69 73 77 82 88 94 98 99 99 99 98 96 93 90 87 85 83 80
70 64 68 77 78 75 74 73 72 73 73 74 74 75 75 76 76 77 78 78 78 78 78 78 79 81 82 84 85 86 86 85 85 84 83 82 79 76 75 75 73 72 72 69 59 49 47 48 45 45 47 46 48 52 55 61 66 69 73 78 85 92 97 99 99 99 99 97 95 92 90 87 85 82
65 64 74 82 79 77 76 74 74 75 75 76 75 75 75 76 76 77 77 78 79 80 81 82 83 84 84 85 85 84 83 81 79 78 78 78 77 76 75 73 71 69 69 66 54 43 45 49 46 43 44 43 47 52 55 59 63 66 69 75 82 89 95 98 99 98 98 97 96 94 92 90 88 85
65 73 83 83 80 79 78 75 75 75 76 76 76 76 76 76 77 78 79 79 80 81 82 82 83 83 83 82 81 80 80 79 77 76 75 75 74 73 72 70 68 67 66 61 50 41 44 49 45 41 41 42 47 52 54 57 60 63 65 71 78 85 91 95 97 97 97 97 96 95 93 91 89 86
73 82 86 85 84 84 80 78 78 77 76 75 74 74 75 76 77 78 79 80 81 81 81 80 79 78 78 78 78 78 79 79 78 76 75 74 71 69 67 65 63 63 63 57 46 39 44 48 43 37 38 42 48 53 54 55 58 60 62 67 74 81 87 92 95 96 96 96 96 95 93 91 89 87
81 86 86 87 89 87 83 82 81 79 77 75 74 73 73 73 74 75 76 77 77 76 76 76 76 76 76 77 77 77 77 77 76 75 73 71 68 65 62 59 58 59 58 52 43 38 42 46 41 34 36 43 49 52 53 55 57 58 60 64 70 77 84 90 94 95 95 94 94 94 92 90 88 86
84 85 86 89 90 87 85 84 82 79 77 75 74 72 71 71 71 71 71 72 72 73 73 74 75 77 77 77 77 76 75 73 72 70 68 67 64 61 58 55 54 55 53 47 39 37 41 43 38 33 36 43 49 51 52 54 56 57 58 62 67 74 81 87 92 94 94 93 93 93 92 89 86 85
84 85 87 90 89 87 86 85 81 78 76 74 72 71 69 69 69 70 71 72 73 74 75 76 77 77 77 77 76 74 72 69 67 65 63 62 60 57 53 51 49 50 49 43 35 35 41 41 35 32 36 43 48 51 52 53 55 57 58 61 65 71 79 86 91 93 94 93 92 92 92 89 86 84
85 87 89 90 88 87 86 83 79 76 74 72 71 70 70 71 71 73 74 75 76 77 78 78 78 76 75 74 73 71 69 67 64 62 59 57 55 52 50 48 46 44 44 40 33 33 39 39 32 31 36 41 46 50 52 52 54 57 59 61 65 70 77 84 89 92 94 93 92 91 91 89 86 84
88 89 90 88 87 86 83 79 76 74 73 72 71 72 73 74 75 77 78 79 80 80 79 78 77 75 74 72 70 69 67 64 61 58 55 52 50 48 46 45 43 40 39 37 31 32 37 37 32 32 36 40 45 49 51 52 54 57 59 62 64 68 75 82 88 91 93 93 92 91 90 89 87 85
89 90 88 87 85 83 80 76 74 74 74 74 74 74 75 77 78 80 81 81 81 81 79 78 76 75 73 71 68 66 63 60 56 53 51 48 46 43 42 42 39 36 35 33 31 32 35 35 32 33 36 39 43 47 50 51 53 57 60 62 64 68 73 80 86 89 91 92 91 90 89 89 89 87
90 89 87 86 84 81 77 75 75 75 76 77 77 77 78 80 81 82 82 82 82 80 79 77 75 73 71 69 66 62 59 55 52 49 47 45 42 39 38 38 36 33 32 31 30 32 34 33 32 33 36 39 43 47 49 51 53 56 59 61 63 67 72 78 84 88 90 91 91 90 89 89 89 89
89 88 87 85 82 79 77 77 77 77 78 79 79 79 80 81 82 83 83 82 80 78 76 74 72 70 67 64 61 57 54 51 48 45 43 41 38 36 34 34 33 31 30 30 30 32 33 32 31 33 36 39 42 45 48 50 52 56 59 60 62 66 70 75 82 87 89 90 91 91 90 89 89 90
88 87 85 83 80 79 78 79 79 80 80 81 80 81 81 81 81 82 82 80 78 75 73 70 67 65 62 59 56 53 49 46 43 41 39 37 35 33 31 31 31 29 29 29 29 31 33 32 31 32 35 37 40 44 47 49 51 55 58 60 61 64 68 73 79 85 88 90 92 92 91 90 90 90
87 85 83 82 81 81 81 82 83 83 82 80 79 79 80 81 81 81 79 77 74 71 68 65 62 59 56 54 51 48 45 41 39 37 35 33 32 30 29 29 29 28 28 29 29 31 33 33 31 32 35 37 39 42 46 48 50 54 58 59 60 62 67 71 77 83 88 91 93 93 92 91 90 90
85 83 82 82 83 85 85 86 86 83 80 77 76 76 77 77 78 78 76 73 68 64 62 59 56 53 51 49 47 44 41 38 35 33 31 30 29 28 27 27 28 28 28 28 29 31 33 33 32 32 35 37 39 41 45 47 50 53 57 59 59 61 65 69 74 80 86 90 93 94 94 93 92 91
84 83 83 84 86 88 88 86 83 79 75 74 73 73 74 74 74 73 70 67 62 59 56 54 51 49 47 45 43 41 38 35 33 31 29 29 28 27 27 27 27 28 28 28 30 31 33 34 33 33 35 37 39 41 44 47 50 53 56 58 59 60 63 67 72 78 84 90 93 96 96 95 94 93
85 85 86 87 89 89 86 82 77 74 73 73 72 72 72 71 69 66 63 60 57 54 52 50 48 46 44 42 40 38 36 33 31 29 28 28 27 26 26 27 27 28 28 29 30 32 33 34 33 33 35 37 39 41 43 47 50 53 56 58 59 60 61 65 71 76 82 88 93 97 97 96 95 94
87 89 89 88 87 85 81 77 74 74 74 73 72 71 69 67 64 60 57 55 53 51 49 48 45 43 41 40 38 36 34 32 30 29 28 28 27 26 26 26 27 28 29 29 30 32 34 34 34 34 35 37 39 40 43 46 50 53 55 57 59 60 61 64 69 74 79 86 92 96 97 96 94 94
90 91 89 86 84 81 79 77 77 76 75 74 71 68 65 61 58 55 53 51 50 48 47 45 43 41 39 37 36 35 32 31 29 28 28 27 27 26 26 26 27 28 29 30 31 33 34 34 35 35 35 37 39 40 43 46 49 53 55 57 59 61 61 62 66 72 77 83 89 93 96 97 95 95
92 90 87 84 83 82 82 81 80 78 76 72 68 64 61 58 55 52 51 49 47 45 44 43 41 39 37 35 35 33 32 30 29 28 28 27 27 26 26 26 27 28 30 31 32 33 34 35 35 35 36 37 38 40 43 46 49 52 55 57 59 61 62 63 66 70 75 81 87 92 96 99 97 97
90 88 87 86 86 85 84 82 80 77 73 68 64 60 57 55 53 50 48 46 44 43 42 40 39 37 35 34 33 32 31 30 28 28 27 27 27 26 26 27 28 29 32 33 34 34 35 35 35 36 37 37 38 40 43 45 48 52 54 56 60 62 63 64 66 69 74 80 86 91 94 98 100 99
90 89 89 89 88 86 84 81 78 73 68 63 60 58 56 53 50 47 45 44 42 41 39 38 37 36 34 33 32 31 30 29 28 27 27 27 27 27 27 27 28 31 33 35 35 35 35 35 35 36 37 37 38 40 42 44 47 50 53 56 60 63 64 64 65 67 72 77 83 87 91 96 99 98
91 91 91 89 87 85 82 78 73 68 63 60 57 55 53 50 47 44 42 41 40 38 37 36 35 34 33 32 30 29 29 29 28 27 26 27 27 27 27 28 30 32 35 36 36 35 34 35 35 36 37 37 37 38 40 43 46 49 52 55 60 63 65 65 64 66 69 74 78 83 88 93 96 95
91 91 89 87 83 80 76 72 67 62 59 56 53 51 49 46 44 42 40 38 37 36 35 34 33 33 32 31 29 28 27 27 27 27 26 26 26 27 28 29 31 34 36 37 36 35 34 34 35 36 36 36 36 37 39 41 44 47 50 53 58 63 65 64 64 65 67 70 74 78 83 89 93 94
90 89 85 82 78 74 69 65 61 57 54 51 49 47 45 43 41 39 37 36 35 34 33 33 32 32 31 30 29 27 25 25 26 26 25 25 26 27 28 30 32 35 37 37 36 35 34 34 34 34 34 34 35 36 37 39 41 44 47 51 56 61 64 65 64 64 65 67 70 74 79 85 89 91
87 83 79 75 71 67 63 59 55 52 49 47 46 44 42 40 39 37 35 34 33 32 32 31 31 31 30 30 28 26 24 24 25 25 25 25 25 27 29 31 33 36 37 38 37 35 34 33 33 33 33 33 34 34 35 37 39 42 45 49 53 58 63 64 64 63 63 65 68 71 76 81 85 88
Wind_Direction
312 309 307 307 307 309 305 299 299 304 308 310 313 315 311 308 310 312 316 319 321 319 317 315 311 307 306 308 311 314 315 317 318 319 321 321 322 321 313 303 292 284 277 269 259 250 245 241 239 237 234 231 229 228 228 227 227 226 227 229 230 230 229 229 231 229 226 225 224 224 225 224 222 221
312 309 307 305 305 305 303 301 301 304 307 309 312 314 311 307 306 308 313 318 319 317 315 314 311 305 303 305 308 310 312 314 315 316 318 318 319 318 315 308 299 293 287 281 272 261 252 244 240 237 235 232 230 228 227 227 226 226 225 226 228 229 229 229 230 230 227 225 223 223 224 223 221 221
311 309 307 304 302 300 300 300 301 303 307 311 313 314 312 307 303 305 310 315 317 316 314 312 309 305 303 304 306 307 309 310 312 313 314 315 316 316 315 310 303 301 298 292 284 273 260 250 243 238 236 233 231 229 228 226 226 226 225 226 227 227 229 229 229 229 228 225 223 222 223 222 221 220
309 308 304 300 298 297 298 300 302 305 309 313 314 313 310 306 301 303 309 311 312 313 312 310 306 303 302 303 304 305 307 308 309 310 311 312 314 314 314 313 310 308 306 302 296 284 270 258 248 241 237 234 232 230 229 227 226 226 225 226 227 227 227 228 228 228 228 226 223 221 221 220 220 220
306 304 300 298 297 298 299 302 305 309 312 313 313 311 308 305 302 304 307 307 307 308 308 306 303 300 300 302 303 303 304 307 308 309 309 310 311 312 313 315 314 312 310 307 302 291 276 263 254 245 238 235 233 231 230 228 227 226 226 226 227 227 227 227 227 227 228 227 224 222 220 219 219 219
302 302 301 300 300 301 303 306 308 310 311 310 310 309 308 305 303 302 301 302 303 303 303 303 300 298 298 300 301 302 303 305 306 307 307 309 310 312 313 314 315 313 311 308 304 296 281 267 258 250 242 236 234 232 231 229 228 227 226 226 226 227 227 226 226 226 227 226 224 222 220 217 217 217
303 304 303 303 303 304 305 307 307 308 309 309 310 309 306 303 301 299 297 295 298 299 300 300 298 297 297 298 298 299 300 301 303 304 306 308 309 311 312 314 314 313 310 308 305 299 287 271 260 253 247 239 234 232 231 230 229 227 227 227 226 227 226 226 225 225 225 225 224 222 220 218 216 215
305 305 305 304 304 305 305 306 307 308 309 310 311 307 302 300 299 296 292 291 293 297 298 299 298 297 297 297 297 297 298 299 301 303 305 307 308 310 311 313 313 311 309 308 304 299 291 278 264 254 249 243 236 232 231 230 229 228 227 226 226 226 226 225 224 224 224 223 222 222 221 219 216 214
305 305 304 304 304 304 305 306 307 308 309 310 309 304 299 297 296 295 292 291 294 297 298 298 298 297 296 296 296 296 297 299 301 303 304 306 308 310 311 311 311 310 309 308 304 298 292 283 269 256 249 245 240 234 231 230 229 227 226 226 225 226 226 225 224 223 223 222 221 222 221 220 217 214
302 302 302 303 303 304 305 305 306 307 307 306 305 301 296 293 292 292 291 291 292 295 297 297 296 295 296 295 293 293 295 298 301 303 305 307 308 309 310 311 311 310 310 307 303 298 293 285 274 262 251 246 242 237 232 230 228 227 226 226 225 224 225 225 224 222 222 221 221 221 221 219 218 215
301 301 301 302 303 303 304 304 304 303 303 301 298 294 291 290 289 289 288 288 289 291 293 294 294 294 293 291 290 291 295 298 301 303 305 306 308 309 311 312 311 310 309 306 302 298 293 286 277 267 256 247 243 238 233 230 228 226 225 225 224 223 224 224 224 222 221 220 220 220 220 219 218 216
303 302 302 303 302 303 303 303 302 301 300 299 295 291 290 289 288 287 288 288 288 290 292 293 293 291 289 288 290 292 295 298 301 302 304 306 308 310 310 309 307 307 307 304 301 298 293 286 278 270 260 250 243 239 233 229 228 226 224 224 224 223 223 223 223 222 220 220 219 219 219 219 217 216
307 306 306 305 304 304 304 304 303 301 299 296 294 292 291 290 288 288 288 289 288 289 290 291 290 288 288 289 292 295 297 299 301 302 305 307 309 308 306 304 303 304 304 302 300 297 292 285 279 272 264 253 244 239 233 229 227 226 224 223 223 222 222 222 222 222 220 219 219 218 218 218 217 215
309 309 309 308 307 307 306 305 304 302 300 297 294 292 290 289 289 289 289 289 290 290 290 290 289 290 291 293 295 297 299 300 302 305 307 307 305 303 301 301 303 303 301 300 298 295 290 284 279 273 266 256 246 239 232 227 226 226 224 222 222 222 221 221 221 221 220 219 218 218 218 218 216 215
308 309 310 310 310 308 307 306 305 302 300 298 295 291 289 289 290 290 290 290 291 291 291 291 292 294 295 296 297 299 301 303 305 306 304 301 299 298 300 301 302 301 299 299 297 293 288 283 279 274 267 258 247 238 231 227 225 224 223 221 221 220 220 220 220 219 219 218 218 217 217 217 216 215
307 308 310 311 311 310 307 305 303 300 298 296 292 290 290 290 290 289 289 290 290 291 292 293 294 295 296 297 300 302 304 304 303 300 297 296 297 299 301 301 300 298 297 297 295 291 287 283 281 275 265 256 247 237 230 226 224 224 222 220 219 219 219 219 219 218 218 217 217 217 216 217 216 215
307 308 309 311 311 310 308 305 301 298 295 293 291 290 290 290 290 290 290 290 290 292 293 293 294 295 298 300 302 302 300 298 296 295 295 297 298 300 300 299 297 296 295 294 292 289 286 284 281 272 262 253 245 236 228 225 224 224 222 220 219 218 218 218 218 217 217 217 217 216 215 216 216 215
310 311 311 313 313 311 309 306 301 298 296 293 291 291 291 291 292 292 292 292 292 293 294 295 297 298 299 299 297 295 294 294 295 296 297 297 298 299 298 297 296 295 294 292 290 288 286 285 279 268 258 250 244 236 228 225 224 224 222 220 218 217 217 217 217 217 216 216 216 216 215 215 216 215
315 313 312 316 316 313 311 308 304 301 299 296 294 294 293 293 293 294 294 295 296 297 298 298 298 297 296 294 293 293 294 295 296 296 297 297 297 297 296 295 295 294 293 291 289 288 287 284 274 263 255 248 243 237 229 224 223 223 222 220 217 216 216 216 216 216 216 216 215 215 214 215 215 215
315 310 311 315 316 313 312 310 308 306 304 302 300 297 296 295 295 295 296 297 298 298 298 297 296 295 294 294 294 294 294 294 295 295 296 296 296 296 295 294 293 292 291 288 287 288 286 280 269 259 253 247 242 237 229 224 223 222 221 219 217 215 215 215 215 215 215 215 215 214 214 214 215 215
311 306 309 313 314 313 312 311 310 308 307 305 303 301 299 298 297 297 297 297 297 297 297 297 296 296 295 295 294 294 294 294 293 293 293 294 294 294 293 293 292 291 289 287 286 287 282 274 265 257 252 246 241 236 229 224 222 221 220 218 216 214 214 213 214 214 214 214 214 214 214 214 215 215
306 304 308 311 311 311 311 309 309 308 306 305 304 302 301 299 298 298 297 297 297 297 296 296 296 295 295 295 295 295 294 294 293 293 292 292 292 292 291 291 291 291 288 285 286 285 277 270 263 256 250 245 239 235 230 224 222 221 220 218 216 214 213 212 213 213 213 213 213 213 214 214 214 214
304 305 307 308 309 310 310 309 309 309 308 306 304 303 301 299 298 298 297 297 296 296 296 295 295 294 294 294 294 294 294 294 294 293 292 291 291 290 289 289 290 288 285 283 284 281 272 267 261 253 246 242 238 234 229 224 222 221 220 219 217 214 212 211 212 212 213 213 212 212 213 213 213 213
304 305 306 307 309 310 311 311 311 310 309 308 306 304 302 300 299 298 297 297 296 296 296 295 295 294 294 293 293 293 293 293 293 293 293 292 291 290 289 289 287 284 282 281 281 276 268 264 260 249 241 239 238 234 229 224 222 220 219 218 217 214 212 211 211 212 212 212 212 212 212 213 213 212
303 304 305 307 309 310 312 312 312 310 309 308 306 305 303 301 300 299 299 298 298 297 297 296 295 295 294 294 294 294 294 294 294 293 293 292 291 290 289 287 284 280 279 279 277 271 264 260 256 247 236 235 237 235 230 224 221 219 218 217 217 214 212 210 210 211 212 212 212 212 212 212 212 212
302 303 305 307 309 311 312 312 311 310 309 308 307 306 304 303 302 301 301 300 299 299 298 297 296 296 296 296 296 297 297 296 295 294 293 291 290 289 287 284 281 278 278 276 272 266 260 257 251 242 234 232 234 235 231 224 221 218 217 216 216 214 211 210 210 210 211 212 212 211 211 211 211 211
302 304 306 308 310 312 312 312 311 310 309 308 307 306 305 305 304 304 303 302 300 299 298 298 298 298 298 299 299 299 298 298 296 295 293 290 288 286 284 281 278 276 275 274 267 259 256 255 247 237 231 229 231 232 231 225 220 217 216 215 215 213 211 209 209 209 210 211 212 211 211 210 210 210
303 305 307 309 311 312 311 311 310 309 308 308 307 307 306 306 306 305 303 302 301 301 300 300 300 301 301 301 300 300 299 298 297 294 292 289 286 283 281 278 276 274 272 270 262 253 252 251 244 233 227 226 228 230 229 225 219 216 215 215 214 213 211 209 208 209 209 210 211 211 210 210 209 209
304 306 308 310 311 311 311 310 310 309 308 308 308 308 308 307 306 305 303 302 302 302 302 302 302 302 302 302 301 301 300 298 296 293 290 286 283 280 278 275 274 272 268 264 258 251 248 246 238 230 225 222 224 227 227 224 218 215 214 214 213 212 211 209 208 208 208 209 209 210 210 209 208 209
306 308 310 311 311 311 311 310 310 309 309 309 309 309 308 307 305 304 303 302 302 303 303 302 302 302 302 302 301 301 299 297 294 291 288 284 281 277 275 272 271 268 263 259 253 249 246 241 233 227 223 220 221 224 225 223 218 214 214 213 212 212 211 209 208 208 208 208 209 209 209 209 208 208
308 310 311 311 311 311 311 310 310 310 310 310 310 308 307 306 304 303 303 303 303 303 303 302 302 302 302 301 301 299 297 295 292 289 285 282 278 274 271 269 267 263 258 254 249 245 243 237 228 224 222 219 219 221 223 222 218 214 213 213 212 211 210 209 208 207 207 207 208 209 209 209 209 209
310 310 311 311 311 311 311 311 311 311 311 310 309 306 305 304 303 303 303 303 303 303 302 302 302 302 301 301 299 298 296 293 290 286 283 278 275 271 268 265 263 258 253 250 244 240 238 234 226 221 220 219 218 219 220 220 218 215 213 213 211 210 209 209 207 207 206 206 207 208 209 209 209 209
311 311 311 311 311 311 312 312 311 311 310 308 306 304 303 303 303 303 303 303 303 303 302 302 302 301 301 300 298 297 295 292 288 284 280 275 272 268 265 261 258 254 250 245 239 234 234 232 225 219 219 219 217 217 217 218 218 215 213 212 211 209 209 208 207 206 206 206 207 208 208 209 209 209
310 311 311 312 312 312 312 311 310 308 307 305 304 303 303 304 303 303 303 303 303 302 302 301 301 301 300 299 297 295 293 289 286 282 277 272 269 265 262 258 255 251 246 240 233 229 230 230 225 219 218 218 217 216 215 215 216 216 213 212 211 209 208 208 207 206 205 206 206 207 208 209 209 209
310 311 312 313 312 311 310 309 307 306 306 306 306 306 305 304 304 303 303 303 303 302 301 301 302 302 300 299 297 294 291 287 284 280 275 270 266 262 258 254 251 247 242 235 229 226 226 228 225 219 217 218 217 215 213 213 214 215 213 212 211 209 207 207 207 206 205 205 206 207 208 208 209 209
311 312 313 312 310 308 307 307 307 308 309 309 309 308 306 305 304 303 302 302 303 303 302 303 303 302 300 298 295 292 288 285 281 277 273 268 264 259 255 251 248 244 238 231 226 223 224 226 225 220 217 218 218 215 212 211 213 214 213 211 210 209 207 206 206 206 205 205 205 206 207 208 209 209
312 312 311 310 308 308 308 310 311 313 313 312 311 309 307 306 305 304 303 303 303 304 304 303 303 301 299 297 294 290 286 282 278 274 270 266 261 256 251 248 244 240 234 228 223 222 222 224 225 222 218 218 218 216 213 211 212 213 212 210 209 209 207 205 205 205 206 206 206 206 207 207 208 209
311 310 309 309 310 311 313 315 315 315 314 313 311 309 307 306 305 304 304 304 304 304 304 303 302 301 299 296 293 289 285 280 275 271 267 262 258 253 248 244 239 235 230 225 221 220 221 222 224 224 221 218 218 216 214 212 211 212 211 209 208 209 208 205 205 205 205 206 207 207 206 207 207 208
309 309 310 312 313 315 316 316 316 315 313 312 310 308 307 306 305 305 305 304 304 304 303 302 301 301 299 296 292 289 284 279 274 269 264 259 255 250 245 239 234 229 226 223 220 220 220 221 222 224 222 220 218 217 215 213 212 211 210 207 207 207 208 206 205 204 204 205 206 207 207 207 207 208
310 312 314 315 315 316 315 315 314 313 311 309 308 307 307 306 305 305 304 304 303 303 302 302 301 301 299 296 292 288 284 279 274 268 262 257 252 247 241 235 229 225 223 222 220 219 220 220 221 223 223 222 219 217 215 214 212 211 209 207 205 206 207 207 205 204 204 205 206 207 207 207 208 209
313 314 315 315 315 314 314 313 312 311 309 308 307 307 306 305 305 304 303 303 303 302 301 301 301 301 299 296 292 288 284 279 274 268 262 256 250 244 238 232 225 220 220 221 220 219 219 219 221 223 224 223 221 218 217 215 214 212 209 206 205 205 206 207 206 204 204 206 207 207 207 208 209 210
314 314 314 313 313 312 312 311 310 308 308 307 307 306 305 304 304 303 302 302 302 301 301 301 301 301 299 296 293 289 284 279 275 269 262 256 249 242 235 228 221 218 218 220 220 218 218 219 221 223 224 224 222 220 218 217 215 212 209 207 205 205 206 206 206 204 205 206 207 207 207 208 209 211
313 312 312 311 311 310 309 309 308 307 307 307 306 305 304 303 302 302 301 301 301 301 301 301 302 301 299 297 293 289 284 279 274 269 263 256 249 241 233 226 219 216 217 218 218 217 217 219 222 224 224 224 223 221 219 218 216 213 210 207 206 205 205 206 205 204 204 205 206 207 207 208 209 211
311 311 310 309 309 308 308 308 308 307 307 306 305 303 302 302 301 301 301 300 300 301 301 302 302 301 300 297 294 290 285 278 273 268 262 256 249 242 234 225 217 214 215 217 217 215 215 219 222 224 224 223 222 221 219 219 217 214 210 208 206 205 205 205 205 203 202 204 205 206 207 208 209 211
310 309 309 308 308 308 308 308 308 307 307 306 304 303 302 301 301 301 300 300 300 301 302 302 303 301 300 297 294 291 286 278 272 267 262 255 248 242 234 226 218 214 215 215 215 213 214 217 221 222 222 222 221 220 218 217 216 213 209 207 206 205 204 205 204 202 201 202 204 205 206 208 209 210
Height
10886 10884 10883 10881 10878 10876 10874 10873 10870 10868 10865 10863 10861 10859 10856 10853 10852 10850 10848 10845 10843 10840 10838 10838 10837 10835 10833 10830 10827 10825 10823 10821 10819 10818 10816 10816 10815 10815 10815 10815 10814 10812 10811 10810 10809 10808 10808 10809 10811 10814 10817 10820 10824 10827 10831 10834 10836 10839 10842 10845 10848 10851 10855 10859 10862 10865 10869 10872 10876 10879 10881 10884 10886 10889
10880 10878 10876 10874 10873 10871 10869 10868 10865 10862 10860 10857 10855 10853 10850 10847 10846 10844 10842 10840 10838 10835 10832 10830 10830 10828 10826 10824 10821 10819 10817 10815 10813 10811 10810 10809 10808 10807 10807 10806 10805 10804 10804 10803 10801 10799 10798 10798 10799 10802 10805 10809 10813 10817 10820 10824 10827 10830 10833 10836 10839 10843 10847 10851 10855 10859 10862 10866 10869 10873 10876 10879 10882 10884
10876 10873 10871 10868 10867 10865 10864 10861 10859 10856 10853 10851 10849 10846 10843 10841 10839 10837 10835 10832 10831 10830 10826 10823 10821 10820 10818 10816 10814 10812 10810 10809 10806 10804 10802 10801 10800 10799 10798 10797 10795 10794 10793 10793 10791 10789 10787 10787 10787 10789 10793 10797 10801 10805 10809 10813 10817 10820 10824 10827 10831 10834 10839 10843 10848 10852 10856 10859 10863 10866 10870 10874 10877 10879
10871 10869 10867 10864 10861 10859 10857 10855 10852 10849 10847 10843 10841 10838 10835 10834 10833 10830 10827 10824 10821 10821 10820 10817 10813 10811 10810 10808 10806 10804 10802 10800 10799 10797 10795 10793 10792 10790 10789 10787 10785 10783 10782 10781 10780 10778 10777 10775 10775 10777 10780 10784 10788 10793 10797 10802 10806 10811 10815 10818 10822 10827 10831 10835 10840 10844 10848 10852 10855 10859 10863 10867 10871 10874
10865 10863 10862 10860 10857 10854 10852 10849 10846 10843 10840 10836 10833 10831 10828 10827 10826 10823 10821 10818 10815 10812 10812 10811 10807 10803 10801 10799 10797 10795 10793 10791 10789 10787 10785 10784 10783 10781 10778 10776 10774 10771 10769 10768 10767 10766 10766 10764 10764 10764 10766 10771 10775 10780 10784 10789 10794 10800 10805 10809 10814 10818 10822 10826 10831 10836 10840 10845 10848 10852 10855 10860 10864 10868
10860 10858 10856 10854 10852 10849 10846 10842 10839 10836 10833 10831 10827 10824 10821 10819 10818 10817 10815 10813 10810 10806 10803 10802 10800 10797 10793 10790 10788 10786 10784 10782 10780 10778 10776 10774 10772 10770 10767 10764 10762 10760 10758 10756 10754 10754 10753 10752 10752 10752 10753 10757 10761 10765 10770 10776 10782 10788 10793 10799 10804 10809 10813 10817 10822 10828 10833 10837 10841 10845 10849 10852 10857 10861
10854 10852 10849 10847 10844 10841 10838 10834 10832 10829 10826 10824 10821 10818 10815 10813 10812 10811 10810 10807 10804 10801 10797 10794 10792 10789 10786 10783 10780 10777 10775 10773 10771 10769 10766 10764 10761 10759 10756 10753 10751 10749 10746 10744 10742 10740 10740 10739 10739 10739 10740 10742 10746 10751 10756 10763 10770 10776 10782 10789 10794 10799 10803 10808 10814 10819 10824 10829 10833 10838 10842 10846 10850 10854
10846 10843 10840 10838 10835 10831 10829 10826 10823 10821 10818 10816 10814 10812 10810 10808 10807 10805 10802 10800 10797 10793 10790 10786 10784 10781 10778 10775 10772 10769 10767 10764 10761 10759 10756 10753 10750 10748 10744 10741 10739 10737 10734 10732 10729 10727 10726 10726 10725 10726 10727 10728 10731 10736 10742 10749 10757 10764 10770 10777 10782 10788 10794 10799 10804 10809 10814 10819 10825 10830 10835 10840 10844 10848
10837 10834 10831 10828 10825 10822 10820 10817 10814 10813 10811 10808 10807 10806 10804 10803 10801 10797 10793 10791 10788 10785 10782 10778 10776 10774 10770 10766 10762 10759 10757 10754 10751 10749 10746 10743 10739 10736 10733 10730 10727 10725 10722 10719 10717 10715 10713 10712 10711 10711 10712 10714 10717 10722 10728 10735 10744 10752 10758 10764 10770 10777 10784 10789 10794 10799 10805 10811 10817 10822 10828 10833 10838 10843
10829 10825 10822 10819 10816 10813 10810 10808 10806 10805 10803 10801 10800 10799 10797 10796 10794 10789 10785 10783 10780 10777 10774 10771 10769 10766 10762 10758 10754 10749 10747 10744 10741 10738 10735 10732 10728 10724 10722 10719 10715 10712 10709 10706 10704 10702 10701 10699 10697 10698 10699 10701 10704 10708 10714 10720 10729 10738 10745 10751 10758 10766 10773 10778 10784 10790 10796 10803 10809 10814 10820 10826 10831 10837
10825 10820 10816 10811 10807 10804 10802 10800 10798 10797 10796 10794 10793 10791 10789 10788 10786 10782 10778 10776 10773 10769 10767 10764 10761 10758 10754 10750 10745 10740 10736 10733 10730 10727 10725 10722 10717 10712 10710 10707 10703 10700 10697 10695 10691 10689 10688 10686 10684 10685 10686 10688 10691 10694 10700 10706 10713 10722 10731 10739 10747 10754 10761 10767 10775 10782 10788 10794 10800 10806 10812 10818 10824 10830
10818 10815 10811 10806 10801 10798 10796 10794 10791 10789 10787 10786 10784 10782 10779 10778 10776 10773 10770 10767 10764 10761 10758 10755 10752 10749 10745 10740 10735 10731 10727 10723 10720 10717 10715 10712 10707 10702 10700 10696 10692 10688 10686 10683 10679 10676 10674 10673 10673 10673 10673 10674 10677 10681 10686 10692 10698 10706 10716 10726 10734 10741 10749 10757 10766 10773 10780 10786 10792 10799 10805 10811 10817 10823
10809 10805 10802 10798 10793 10790 10788 10786 10784 10781 10779 10777 10775 10773 10771 10769 10766 10764 10761 10758 10754 10751 10749 10745 10741 10738 10734 10729 10725 10722 10718 10713 10710 10707 10703 10701 10697 10693 10691 10686 10680 10676 10674 10672 10669 10664 10660 10660 10661 10661 10659 10660 10664 10668 10673 10677 10683 10691 10701 10711 10720 10729 10738 10747 10756 10764 10771 10778 10784 10791 10797 10803 10810 10816
10801 10797 10793 10789 10784 10781 10778 10777 10776 10774 10771 10769 10767 10764 10762 10759 10756 10754 10750 10748 10744 10741 10738 10734 10730 10727 10723 10719 10715 10712 10708 10703 10700 10696 10692 10690 10686 10683 10681 10676 10668 10663 10661 10660 10658 10652 10648 10649 10651 10649 10648 10648 10651 10655 10659 10663 10669 10676 10685 10696 10707 10717 10727 10736 10745 10754 10762 10769 10776 10783 10789 10796 10802 10808
10794 10790 10786 10782 10778 10774 10771 10769 10767 10765 10762 10760 10758 10755 10752 10749 10747 10743 10740 10737 10734 10730 10727 10724 10719 10716 10712 10707 10704 10701 10696 10692 10689 10686 10683 10681 10677 10673 10670 10667 10659 10650 10647 10648 10646 10641 10636 10638 10641 10639 10636 10637 10639 10642 10646 10649 10654 10661 10670 10681 10693 10704 10714 10724 10734 10743 10751 10760 10767 10774 10781 10788 10794 10801
10788 10784 10780 10777 10772 10768 10764 10762 10759 10757 10754 10752 10749 10746 10743 10740 10736 10733 10730 10727 10724 10720 10716 10712 10708 10705 10702 10696 10692 10688 10684 10681 10679 10677 10674 10670 10666 10661 10658 10655 10650 10641 10636 10636 10636 10630 10624 10628 10633 10629 10625 10625 10627 10630 10633 10636 10641 10648 10657 10668 10679 10690 10702 10712 10722 10732 10741 10750 10758 10765 10773 10779 10786 10793
10781 10777 10773 10770 10767 10762 10758 10754 10751 10749 10746 10743 10740 10737 10733 10730 10726 10723 10719 10716 10714 10710 10706 10702 10697 10694 10691 10687 10682 10678 10675 10672 10669 10665 10661 10657 10653 10650 10645 10641 10637 10631 10626 10624 10625 10620 10615 10619 10623 10617 10612 10614 10615 10617 10621 10625 10630 10638 10646 10655 10665 10677 10690 10700 10711 10721 10730 10739 10748 10756 10763 10771 10777 10784
10773 10769 10766 10762 10759 10755 10752 10747 10743 10740 10738 10735 10731 10727 10724 10720 10715 10711 10707 10704 10702 10699 10695 10690 10686 10683 10680 10677 10674 10670 10665 10662 10657 10653 10649 10644 10641 10639 10634 10628 10624 10619 10614 10612 10613 10611 10607 10610 10612 10606 10601 10603 10605 10608 10612 10617 10622 10629 10637 10645 10655 10667 10679 10690 10700 10710 10720 10729 10738 10746 10754 10762 10768 10775
10765 10760 10757 10755 10751 10747 10744 10740 10735 10732 10730 10726 10722 10718 10713 10709 10705 10700 10694 10691 10689 10687 10683 10680 10676 10673 10669 10666 10663 10658 10654 10651 10646 10641 10636 10632 10629 10628 10624 10618 10613 10608 10602 10598 10601 10603 10599 10598 10599 10595 10592 10595 10597 10600 10605 10609 10614 10620 10628 10636 10646 10657 10668 10679 10690 10700 10709 10719 10728 10736 10745 10752 10760 10767
10759 10754 10749 10747 10744 10740 10736 10731 10727 10723 10719 10715 10711 10707 10703 10698 10694 10689 10684 10680 10678 10675 10672 10669 10665 10662 10657 10653 10650 10646 10643 10641 10636 10631 10625 10620 10618 10616 10613 10608 10603 10598 10592 10586 10590 10596 10590 10585 10587 10586 10584 10588 10591 10592 10596 10601 10606 10612 10619 10627 10636 10646 10657 10668 10678 10688 10698 10708 10718 10727 10735 10743 10751 10758
10755 10749 10744 10740 10737 10733 10728 10723 10719 10714 10709 10705 10701 10697 10693 10688 10684 10679 10675 10671 10668 10664 10661 10656 10652 10648 10644 10640 10637 10633 10631 10629 10627 10623 10617 10611 10607 10604 10601 10596 10592 10587 10581 10576 10582 10588 10581 10572 10575 10579 10578 10581 10583 10583 10588 10594 10599 10605 10612 10618 10626 10635 10645 10656 10667 10678 10688 10698 10708 10717 10726 10734 10742 10750
10748 10742 10737 10733 10729 10725 10721 10716 10711 10705 10700 10695 10691 10687 10682 10678 10673 10669 10665 10662 10658 10654 10651 10647 10641 10636 10632 10628 10625 10621 10617 10615 10613 10611 10607 10602 10598 10595 10590 10586 10581 10576 10570 10568 10574 10579 10570 10561 10567 10573 10573 10575 10575 10575 10581 10588 10593 10598 10605 10611 10618 10626 10635 10647 10658 10669 10679 10688 10698 10708 10717 10726 10734 10743
10739 10733 10727 10723 10719 10715 10711 10706 10701 10695 10690 10685 10680 10676 10671 10667 10662 10658 10654 10651 10647 10643 10640 10636 10631 10626 10622 10618 10614 10610 10605 10602 10599 10596 10593 10589 10587 10584 10579 10575 10572 10565 10560 10560 10567 10569 10560 10553 10559 10567 10568 10568 10567 10568 10575 10582 10586 10592 10599 10605 10612 10620 10629 10640 10651 10661 10671 10680 10691 10700 10710 10719 10728 10739
10729 10723 10717 10711 10707 10703 10699 10694 10689 10684 10678 10673 10668 10664 10660 10656 10652 10648 10644 10640 10636 10632 10628 10623 10619 10615 10611 10607 10604 10600 10596 10592 10588 10583 10579 10575 10573 10571 10568 10565 10561 10555 10551 10553 10559 10559 10552 10547 10553 10561 10563 10562 10560 10563 10569 10575 10580 10586 10593 10599 10605 10613 10623 10634 10644 10654 10665 10675 10685 10694 10704 10713 10724 10736
10720 10715 10709 10702 10697 10693 10688 10684 10678 10673 10667 10662 10658 10654 10650 10646 10642 10638 10634 10630 10626 10621 10616 10612 10607 10603 10598 10595 10592 10588 10585 10581 10577 10572 10568 10563 10560 10558 10556 10554 10551 10546 10544 10547 10551 10550 10544 10542 10548 10555 10557 10556 10555 10557 10563 10569 10575 10581 10587 10593 10599 10607 10617 10627 10637 10648 10659 10669 10679 10688 10698 10708 10720 10731
10710 10706 10701 10694 10688 10683 10678 10672 10667 10661 10656 10651 10647 10643 10640 10636 10632 10628 10624 10619 10615 10610 10605 10600 10596 10592 10587 10583 10579 10575 10571 10568 10565 10561 10557 10552 10549 10546 10545 10544 10541 10538 10536 10539 10544 10542 10536 10537 10544 10549 10550 10551 10551 10553 10557 10564 10570 10576 10582 10587 10593 10600 10609 10619 10629 10641 10652 10662 10672 10682 10692 10703 10715 10726
10699 10696 10692 10686 10680 10674 10669 10662 10656 10651 10645 10641 10637 10634 10630 10625 10621 10617 10612 10608 10603 10598 10593 10588 10584 10580 10576 10572 10567 10563 10559 10556 10552 10549 10545 10542 10539 10536 10534 10533 10532 10531 10530 10532 10536 10535 10530 10532 10540 10543 10543 10545 10546 10548 10552 10558 10565 10571 10576 10581 10587 10593 10602 10611 10621 10632 10643 10654 10664 10675 10686 10698 10710 10720
10690 10686 10682 10676 10671 10666 10659 10653 10647 10642 10636 10632 10628 10624 10620 10615 10611 10606 10601 10596 10591 10586 10581 10577 10572 10568 10564 10560 10556 10552 10548 10544 10541 10537 10534 10531 10529 10528 10526 10524 10524 10525 10524 10525 10529 10528 10526 10528 10535 10537 10538 10540 10542 10543 10547 10553 10559 10565 10570 10575 10581 10587 10596 10605 10614 10624 10634 10645 10656 10668 10680 10692 10703 10712
10680 10676 10672 10667 10662 10656 10650 10644 10638 10633 10627 10622 10619 10615 10610 10605 10600 10595 10589 10584 10579 10574 10570 10565 10561 10556 10552 10548 10544 10540 10537 10533 10530 10527 10524 10522 10521 10520 10518 10516 10516 10518 10518 10519 10521 10522 10521 10525 10530 10532 10533 10535 10536 10538 10542 10547 10554 10560 10565 10569 10575 10582 10590 10598 10607 10617 10628 10639 10649 10661 10672 10683 10694 10703
10670 10665 10661 10657 10652 10646 10640 10634 10629 10624 10618 10612 10608 10605 10600 10594 10589 10583 10578 10573 10568 10563 10559 10554 10550 10545 10541 10537 10533 10530 10526 10523 10521 10518 10515 10513 10513 10513 10511 10510 10510 10512 10512 10514 10515 10516 10517 10521 10525 10526 10527 10529 10531 10533 10537 10542 10549 10554 10559 10565 10571 10577 10584 10593 10602 10612 10623 10634 10645 10655 10666 10676 10686 10695
10660 10655 10650 10646 10641 10635 10629 10624 10619 10615 10609 10603 10598 10594 10588 10583 10577 10571 10566 10562 10557 10552 10547 10543 10539 10534 10530 10526 10523 10520 10517 10515 10512 10510 10508 10506 10506 10506 10505 10504 10504 10506 10507 10508 10510 10511 10512 10516 10519 10521 10522 10524 10527 10529 10533 10538 10544 10550 10555 10560 10566 10572 10580 10588 10597 10606 10617 10629 10640 10650 10660 10669 10679 10687
10649 10644 10639 10635 10630 10625 10620 10614 10609 10605 10600 10594 10588 10582 10577 10572 10566 10560 10555 10550 10546 10541 10537 10533 10528 10524 10521 10517 10514 10511 10509 10507 10505 10502 10501 10500 10499 10499 10499 10499 10499 10501 10502 10504 10505 10506 10507 10511 10514 10516 10518 10520 10522 10525 10529 10533 10539 10544 10550 10555 10561 10568 10575 10583 10591 10601 10612 10623 10632 10642 10652 10662 10671 10679
10639 10633 10628 10623 10618 10613 10608 10603 10598 10594 10590 10585 10579 10571 10565 10559 10554 10548 10544 10540 10535 10531 10526 10522 10519 10515 10512 10508 10506 10503 10501 10500 10498 10496 10495 10494 10493 10493 10493 10493 10494 10496 10498 10499 10501 10502 10503 10506 10509 10511 10513 10515 10518 10521 10524 10529 10533 10538 10544 10550 10557 10564 10571 10578 10586 10596 10605 10615 10626 10636 10646 10655 10663 10671
10630 10625 10620 10615 10608 10602 10597 10592 10587 10583 10580 10575 10569 10563 10556 10549 10543 10538 10533 10530 10526 10522 10518 10514 10511 10507 10504 10501 10498 10496 10494 10493 10491 10490 10489 10488 10488 10488 10488 10489 10490 10492 10493 10495 10496 10498 10499 10501 10504 10506 10508 10510 10513 10516 10520 10524 10528 10533 10539 10545 10552 10559 10567 10574 10582 10590 10599 10610 10620 10628 10637 10646 10655 10663
10620 10616 10611 10606 10599 10592 10588 10583 10578 10573 10568 10562 10557 10552 10546 10540 10535 10529 10524 10520 10517 10514 10510 10506 10503 10500 10497 10494 10491 10489 10488 10486 10485 10484 10483 10482 10483 10483 10483 10484 10485 10487 10489 10490 10492 10493 10495 10497 10499 10502 10504 10506 10508 10512 10516 10520 10523 10528 10534 10541 10548 10555 10562 10569 10577 10584 10593 10602 10611 10619 10628 10638 10647 10655
10608 10604 10600 10595 10588 10581 10577 10572 10567 10561 10556 10550 10545 10541 10535 10530 10525 10520 10516 10512 10508 10505 10502 10498 10496 10493 10490 10487 10485 10483 10481 10480 10479 10478 10478 10477 10477 10478 10479 10480 10481 10482 10484 10486 10488 10489 10491 10493 10495 10498 10500 10502 10504 10508 10512 10516 10519 10523 10529 10536 10543 10550 10557 10564 10571 10579 10587 10595 10602 10610 10620 10630 10640 10650
10597 10592 10589 10585 10578 10570 10565 10559 10554 10549 10544 10539 10534 10529 10525 10520 10515 10511 10508 10504 10501 10497 10494 10491 10488 10486 10483 10481 10478 10476 10475 10474 10473 10473 10472 10472 10472 10473 10474 10475 10476 10478 10480 10482 10484 10485 10487 10489 10491 10494 10496 10498 10501 10504 10508 10512 10515 10519 10525 10531 10538 10545 10552 10559 10566 10574 10582 10589 10596 10604 10614 10624 10635 10644
10586 10581 10578 10573 10566 10559 10553 10547 10543 10538 10534 10529 10524 10519 10515 10511 10507 10503 10500 10497 10493 10490 10487 10484 10482 10479 10477 10474 10472 10470 10469 10468 10468 10467 10467 10467 10467 10468 10469 10471 10472 10474 10476 10478 10480 10482 10483 10485 10488 10490 10492 10495 10498 10501 10504 10508 10511 10515 10520 10527 10534 10540 10547 10555 10562 10569 10576 10583 10590 10599 10607 10616 10624 10631
10575 10570 10565 10560 10554 10547 10542 10537 10533 10528 10524 10519 10515 10510 10506 10503 10499 10496 10493 10489 10486 10483 10480 10477 10475 10473 10471 10469 10466 10465 10463 10463 10462 10462 10462 10462 10462 10463 10465 10466 10468 10470 10472 10474 10476 10478 10480 10482 10484 10486 10489 10491 10494 10497 10501 10504 10507 10511 10516 10522 10529 10535 10542 10549 10556 10563 10570 10576 10583 10591 10599 10607 10613 10619
10564 10557 10552 10547 10542 10538 10533 10529 10524 10519 10514 10510 10505 10501 10498 10495 10492 10489 10486 10482 10479 10477 10474 10471 10469 10467 10465 10463 10461 10459 10458 10457 10457 10457 10457 10457 10457 10458 10460 10462 10464 10466 10468 10470 10472 10474 10476 10479 10481 10483 10485 10488 10491 10494 10497 10500 10504 10507 10512 10518 10524 10530 10536 10543 10550 10557 10564 10570 10576 10584 10593 10601 10606 10611
10553 10547 10542 10536 10531 10527 10524 10520 10515 10510 10505 10501 10497 10493 10490 10487 10484 10482 10479 10476 10473 10471 10468 10465 10463 10461 10459 10458 10456 10454 10453 10452 10452 10452 10452 10452 10452 10454 10455 10457 10460 10462 10464 10466 10468 10471 10473 10476 10478 10479 10481 10484 10487 10490 10493 10497 10500 10504 10509 10514 10519 10525 10531 10538 10546 10553 10560 10565 10571 10579 10588 10595 10602 10609
10544 10538 10533 10529 10524 10519 10514 10510 10505 10501 10496 10492 10489 10485 10482 10479 10477 10475 10473 10470 10467 10465 10462 10460 10458 10456 10454 10453 10451 10450 10449 10447 10447 10447 10447 10447 10448 10449 10451 10453 10456 10458 10460 10463 10465 10468 10470 10473 10474 10476 10478 10481 10484 10487 10490 10493 10496 10500 10505 10510 10515 10520 10526 10533 10541 10549 10555 10562 10568 10576 10584 10591 10599 10607
10535 10529 10525 10520 10516 10511 10506 10501 10496 10492 10488 10484 10481 10478 10475 10473 10471 10469 10466 10464 10461 10459 10457 10455 10453 10451 10449 10448 10446 10445 10444 10443 10442 10442 10443 10443 10444 10445 10447 10449 10451 10454 10457 10459 10462 10465 10468 10469 10471 10472 10475 10478 10481 10484 10487 10489 10493 10497 10502 10507 10511 10517 10523 10529 10537 10544 10551 10558 10565 10573 10581 10588 10595 10603
10526 10521 10516 10511 10507 10502 10497 10493 10488 10484 10481 10478 10474 10472 10469 10467 10465 10463 10461 10458 10456 10453 10451 10449 10448 10446 10445 10443 10442 10441 10440 10439 10439 10438 10439 10439 10440 10441 10443 10445 10447 10450 10453 10456 10459 10462 10464 10466 10468 10469 10472 10475 10478 10481 10483 10486 10490 10494 10499 10503 10508 10513 10519 10526 10532 10540 10547 10555 10562 10569 10576 10583 10590 10598
10517 10512 10507 10502 10498 10493 10488 10484 10481 10477 10474 10471 10468 10466 10463 10461 10459 10457 10455 10453 10451 10448 10446 10444 10443 10441 10440 10439 10437 10437 10436 10436 10435 10435 10435 10436 10436 10438 10439 10441 10443 10446 10449 10452 10455 10458 10461 10463 10465 10467 10469 10472 10474 10477 10481 10483 10486 10491 10495 10500 10505 10510 10516 10522 10529 10537 10544 10551 10558 10564 10572 10578 10585 10592